Weather History for South Lake Tahoe, CA

Change the Weather History Date:

Saturday, May 26, 2012

  Actual Average Record
Temperature  
Mean Temperature 40 °F 50 °F  
Max Temperature 47 °F 66 °F 79 °F (1992)
Min Temperature 32 °F 34 °F 21 °F (1980)
Degree Days  
Heating Degree Days 25 15  
Month to date heating degree days 428 460  
Since 1 July heating degree days 6641 7350  
Cooling Degree Days 0 0  
Month to date cooling degree days 0 0  
Year to date cooling degree days 0 0  
Moisture  
Dew Point 31 °F    
Average Humidity 73    
Maximum Humidity 96    
Minimum Humidity 49    
Precipitation  
Precipitation 0.01 in - 0.28 in (1981)
Month to date precipitation 0.12  
Year to date precipitation 9.88  
Sea Level Pressure  
Sea Level Pressure 29.87 in    
Wind  
Wind Speed 3 mph (South)    
Max Wind Speed 16 mph    
Max Gust Speed 26 mph    
Visibility 9 miles    
Events Rain , Snow    
T = Trace of Precipitation, MM = Missing Value Source: NWS Daily Summary

Daily Weather History Graph

Daily Weather History Graph

Search for Another Location

Airport:

Trip Planner

Search our weather history database for the weather conditions in past years. The results will help you decide how hot, cold, wet, or windy it might be!

Date:

Astronomy

May. 26, 2012 Rise Set
Actual Time 5:39 AM PDT 8:15 PM PDT
Civil Twilight 5:08 AM PDT 8:46 PM PDT
Nautical Twilight 4:29 AM PDT 9:25 PM PDT
Astronomical Twilight 3:46 AM PDT 10:08 PM PDT
Moon 10:44 AM PDT (5/26) No Moon Set
Length of Visible Light 15h 38m
Length of Day
14h 36m
Waxing Crescent, 29% of the Moon is Illuminated
May 26
Waxing Crescent
May 28
First Quarter
Jun 4
Full
Jun 11
Last Quarter
Jun 19
New

Hourly Weather History & Observations

Time (PDT) Temp. Windchill Dew Point Humidity Pressure Visibility Wind Dir Wind Speed Gust Speed Precip Events Conditions
12:22 AM 33.8 °F - 30.2 °F 87% 29.77 in 8.0 mi Calm Calm - 0.00 in   Overcast
12:44 AM 33.8 °F 30.8 °F 30.2 °F 87% 29.77 in 2.5 mi SSE 3.5 mph - 0.00 in Snow Light Snow
12:53 AM 33.1 °F - 30.9 °F 92% 29.73 in 1.5 mi Calm Calm - 0.00 in Snow Light Snow
1:06 AM 32.0 °F - 30.2 °F 93% 29.77 in 2.0 mi Calm Calm - 0.00 in Snow Light Snow
1:14 AM 33.8 °F 30.8 °F 30.2 °F 87% 29.77 in 3.0 mi SSE 3.5 mph - 0.00 in Snow Light Snow
1:19 AM 33.8 °F - 30.2 °F 87% 29.77 in 5.0 mi Calm Calm - 0.00 in Snow Light Snow
1:53 AM 33.1 °F 30.0 °F 30.9 °F 92% 29.75 in 10.0 mi Variable 3.5 mph - 0.01 in   Overcast
2:53 AM 34.0 °F 29.8 °F 30.9 °F 89% 29.74 in 10.0 mi SSE 4.6 mph - 0.00 in   Overcast
3:31 AM 33.8 °F 30.8 °F 30.2 °F 87% 29.76 in 10.0 mi South 3.5 mph - N/A   Overcast
3:53 AM 33.1 °F - 30.9 °F 92% 29.74 in 7.0 mi Calm Calm - 0.00 in   Overcast
4:20 AM 33.8 °F - 30.2 °F 87% 29.76 in 9.0 mi Calm Calm - 0.00 in   Overcast
4:53 AM 34.0 °F 29.8 °F 32.0 °F 92% 29.73 in 10.0 mi Variable 4.6 mph - 0.00 in   Overcast
5:15 AM 33.8 °F 28.6 °F 30.2 °F 87% 29.76 in 10.0 mi SSE 5.8 mph - N/A   Overcast
5:53 AM 34.0 °F 31.0 °F 30.9 °F 89% 29.74 in 10.0 mi South 3.5 mph - N/A   Overcast
6:53 AM 34.0 °F - 30.9 °F 89% 29.76 in 10.0 mi Calm Calm - N/A   Overcast
7:53 AM 36.0 °F 31.1 °F 30.9 °F 82% 29.75 in 10.0 mi South 5.8 mph - N/A   Overcast
8:53 AM 37.0 °F 32.4 °F 30.9 °F 79% 29.78 in 10.0 mi South 5.8 mph - N/A   Overcast
9:53 AM 39.0 °F 34.8 °F 30.0 °F 70% 29.79 in 10.0 mi SSW 5.8 mph - 0.00 in   Overcast
10:53 AM 41.0 °F 33.5 °F 30.9 °F 67% 29.81 in 10.0 mi SSW 13.8 mph - N/A   Overcast
11:53 AM 41.0 °F 34.7 °F 30.9 °F 67% 29.85 in 10.0 mi SSW 10.4 mph 16.1 mph N/A   Overcast
12:53 PM 44.1 °F 40.8 °F 27.0 °F 51% 29.85 in 10.0 mi Variable 5.8 mph - N/A   Mostly Cloudy
1:53 PM 41.0 °F 38.0 °F 28.9 °F 62% 29.90 in 10.0 mi Variable 4.6 mph - 0.00 in Rain Light Rain
2:30 PM 41.0 °F 38.0 °F 30.2 °F 65% 29.94 in 10.0 mi SSW 4.6 mph - 0.00 in   Mostly Cloudy
2:48 PM 42.8 °F 39.3 °F 30.2 °F 61% 29.95 in 10.0 mi Variable 5.8 mph - 0.00 in   Overcast
2:53 PM 43.0 °F 41.3 °F 30.0 °F 60% 29.90 in 10.0 mi Variable 3.5 mph - 0.00 in   Overcast
3:53 PM 39.9 °F 34.5 °F 30.9 °F 70% 29.94 in 10.0 mi SSW 8.1 mph - 0.00 in Rain Light Rain
4:53 PM 39.9 °F 33.9 °F 34.0 °F 79% 29.96 in 7.0 mi South 9.2 mph - 0.00 in Rain Light Rain
5:06 PM 41.0 °F 33.9 °F 35.6 °F 81% 29.99 in 10.0 mi South 12.7 mph - 0.00 in Rain Light Rain
5:20 PM 41.0 °F 34.3 °F 33.8 °F 76% 29.99 in 10.0 mi South 11.5 mph - 0.00 in   Mostly Cloudy
5:53 PM 42.1 °F 37.1 °F 30.9 °F 65% 29.96 in 10.0 mi SSW 8.1 mph - 0.00 in   Mostly Cloudy
6:53 PM 41.0 °F 35.2 °F 30.9 °F 67% 29.98 in 10.0 mi SSW 9.2 mph - N/A   Overcast
7:53 PM 39.0 °F 36.8 °F 33.1 °F 79% 30.00 in 10.0 mi South 3.5 mph - 0.00 in   Overcast
8:41 PM 39.2 °F - 32.0 °F 75% 30.05 in 10.0 mi Calm Calm - N/A   Overcast
8:53 PM 39.0 °F - 32.0 °F 76% 30.02 in 10.0 mi Calm Calm - N/A   Overcast
9:22 PM 39.2 °F 35.9 °F 32.0 °F 75% 30.06 in 10.0 mi South 4.6 mph - N/A   Overcast
9:53 PM 37.0 °F - 32.0 °F 82% 30.04 in 10.0 mi Calm Calm - N/A   Mostly Cloudy
10:53 PM 36.0 °F - 32.0 °F 86% 30.05 in 10.0 mi Calm Calm - N/A   Overcast
11:53 PM 37.0 °F - 32.0 °F 82% 30.05 in 10.0 mi Calm Calm - N/A   Overcast